Wind_Speed
23 23 23 22 21 20 18 16 15 13 12 12 13 14 16 18 21 24 26 28 31 33 35 37 39 42 43 43 44 43 42 41 41 40 39 39 39 38 38 38 37 37 37
24 24 24 24 24 22 20 19 18 16 14 13 13 12 13 14 16 19 21 24 27 29 31 34 36 39 40 41 42 42 42 41 41 41 40 39 38 38 38 38 38 38 37
24 25 25 25 25 24 23 21 20 19 16 14 12 11 11 11 12 14 17 19 22 25 27 29 32 34 37 38 39 40 41 40 40 40 40 39 38 37 38 39 38 38 38
23 24 25 25 25 25 25 24 22 21 20 18 15 13 10 9 8 9 11 14 17 20 23 26 28 29 32 34 36 37 38 38 37 38 38 38 38 37 38 38 38 39 38
22 23 24 25 25 26 25 25 24 23 22 20 18 16 12 9 7 6 7 10 12 15 17 20 24 26 28 29 32 34 35 36 37 37 37 36 37 38 38 39 38 37 38
22 23 23 24 25 25 26 26 25 24 23 22 20 18 15 11 9 7 5 4 7 10 13 16 19 21 25 26 28 30 31 32 34 35 36 36 36 37 37 38 37 36 36
22 22 23 23 24 25 26 26 26 25 25 23 22 20 17 14 12 9 6 4 3 6 9 12 15 17 20 24 26 27 28 28 29 31 32 32 34 34 34 35 36 36 34
21 22 22 23 23 24 25 25 26 26 25 24 23 21 19 17 14 12 10 6 3 3 5 7 10 13 14 18 20 23 24 23 25 26 28 29 30 31 32 32 32 33 33
21 21 21 21 22 23 24 24 25 25 25 24 24 23 21 19 17 14 13 9 6 3 2 4 6 8 10 12 14 18 20 21 22 23 25 26 27 27 28 29 30 31 31
20 20 21 21 21 21 22 23 24 24 24 23 23 22 21 20 18 17 15 12 9 6 2 2 4 6 8 9 10 13 16 18 19 19 20 22 23 24 25 26 26 27 28
19 20 20 20 20 20 21 21 22 23 22 22 21 21 20 20 19 18 17 15 13 10 6 2 1 4 5 7 8 9 11 13 15 16 18 18 19 20 21 22 22 23 24
19 19 19 19 19 20 19 20 20 21 21 20 20 20 19 19 18 17 17 16 14 12 9 6 2 2 4 5 7 8 9 11 12 13 14 14 15 16 17 19 20 22 22
19 19 19 19 19 19 19 19 18 19 19 19 18 18 18 18 17 17 16 16 14 12 10 8 5 2 1 3 5 6 7 8 10 11 12 12 13 14 15 16 18 19 19
20 20 20 20 20 19 19 18 18 17 17 17 17 17 17 16 16 16 15 15 14 13 10 8 7 4 1 1 2 4 5 6 8 10 11 11 12 12 13 13 14 15 16
21 20 20 20 20 20 19 19 18 17 17 17 16 16 16 16 15 15 15 14 13 13 11 9 7 5 2 1 1 3 3 4 7 8 10 11 11 12 12 12 12 13 13
22 22 21 21 20 20 20 20 19 19 18 17 16 16 16 15 15 14 14 13 12 12 11 8 6 5 3 1 1 2 3 4 6 8 9 10 11 11 11 11 11 12 13
24 24 24 23 22 22 21 21 20 20 19 18 17 17 16 16 15 14 14 13 12 11 10 8 6 5 3 2 2 3 4 5 6 8 9 9 10 11 11 11 12 12 13
27 27 26 25 25 24 24 23 22 22 21 20 20 19 18 17 16 15 15 14 12 11 10 8 7 6 5 5 5 5 5 5 6 7 8 9 10 11 12 12 12 12 13
29 29 29 28 28 27 27 26 26 25 24 23 22 21 20 19 18 17 16 16 15 13 12 11 10 9 8 7 7 6 6 6 7 8 9 9 10 11 12 12 13 13 14
31 31 32 31 31 31 30 30 29 29 28 27 26 25 24 23 22 21 20 18 18 17 16 14 13 12 11 11 10 10 9 9 9 9 10 11 11 12 12 13 13 14 15
34 34 34 34 34 34 34 34 33 33 32 31 30 29 28 27 26 25 24 23 22 20 19 18 17 16 15 14 14 13 12 12 12 13 13 13 13 13 13 14 14 14 14
36 36 36 36 36 37 37 37 37 37 36 36 35 34 33 32 31 30 28 27 26 25 24 22 21 20 19 18 18 17 17 16 16 16 16 16 16 16 16 16 16 16 16
37 38 38 38 39 39 40 40 40 41 41 40 40 39 39 37 36 35 34 32 31 30 28 27 26 25 24 23 22 21 20 20 19 19 19 19 19 19 18 18 18 18 18
40 40 41 41 41 41 42 43 43 44 44 45 45 44 44 43 42 41 40 38 36 35 33 32 31 30 29 28 27 26 25 24 23 22 22 21 21 21 21 21 21 20 20
43 43 44 44 44 45 45 46 47 47 48 49 49 49 49 49 48 46 45 44 42 40 39 37 36 35 34 33 31 30 30 28 27 26 26 25 24 24 24 24 23 23 23
46 46 47 48 48 49 50 50 51 51 52 53 53 54 54 54 54 53 51 50 48 47 45 43 41 40 39 37 36 35 34 33 32 31 30 29 29 28 28 27 27 26 26
Wind_Direction
22 20 19 15 12 9 5 360 352 339 326 314 299 285 273 266 260 255 250 246 244 241 239 237 237 237 238 239 240 239 239 239 239 239 240 240 239 240 240 242 243 244 246
23 21 20 19 17 14 11 8 3 355 344 331 318 303 289 278 268 257 250 245 243 240 237 236 236 237 238 239 239 240 240 240 240 240 239 239 240 240 240 242 244 245 246
22 22 21 20 20 19 17 14 11 7 2 355 344 330 312 294 278 264 253 245 241 239 237 235 234 234 235 238 239 241 241 241 240 240 239 239 240 240 240 242 244 246 248
19 20 20 20 19 19 19 17 16 14 12 9 2 352 338 320 298 273 257 248 243 239 239 237 234 234 233 236 238 240 240 242 241 239 239 241 241 241 241 242 244 246 247
16 17 18 19 19 19 19 18 18 17 16 15 14 10 3 351 337 307 273 255 245 238 238 236 237 236 233 234 236 238 240 241 242 241 241 240 241 243 244 244 245 247 247
13 14 15 17 18 19 20 19 20 20 20 19 19 17 14 10 3 351 323 273 249 238 237 236 237 235 233 234 236 237 240 241 241 241 241 242 243 242 242 244 244 245 247
11 12 13 15 16 18 20 21 21 21 22 22 22 22 22 22 20 15 7 342 281 249 240 237 235 235 233 233 233 234 237 239 240 240 240 241 242 243 244 245 245 244 245
10 11 12 13 15 16 18 20 21 22 23 25 26 27 28 29 29 25 20 10 347 282 252 234 233 232 232 232 233 234 235 235 238 240 240 240 240 240 243 243 241 242 244
6 8 9 11 12 14 16 17 20 21 23 25 27 29 30 31 31 28 25 23 17 352 269 242 236 228 227 228 230 230 231 231 231 234 237 238 239 239 240 240 239 240 242
1 3 5 7 8 10 12 14 16 19 21 24 26 28 30 30 31 30 29 29 28 21 352 265 230 225 222 223 223 226 224 223 223 226 231 234 235 235 236 238 240 240 240
354 356 359 1 3 5 7 10 13 15 18 21 25 27 28 29 30 31 31 31 31 29 29 25 228 224 221 224 223 221 215 215 219 224 224 226 229 230 231 231 234 234 235
347 349 351 354 356 358 1 4 7 10 14 17 20 23 25 26 27 28 28 28 29 29 31 30 17 237 220 220 219 219 218 219 219 222 223 225 230 230 229 229 229 229 231
340 341 343 345 347 349 352 355 358 2 6 9 13 15 18 20 22 23 25 25 26 27 27 28 28 24 218 219 218 213 215 220 223 220 219 222 223 224 227 225 222 224 227
333 334 335 337 339 340 342 344 348 351 354 358 1 5 8 11 14 16 17 19 21 21 23 25 26 27 27 223 226 226 223 221 224 223 220 218 217 219 222 221 222 222 225
326 327 329 330 330 332 333 334 335 338 341 344 347 350 353 356 359 4 6 9 12 14 15 16 16 18 16 328 222 217 224 217 218 217 214 215 216 218 221 225 222 221 220
317 318 319 320 322 323 324 325 326 326 328 330 332 335 338 341 345 347 351 355 358 1 3 6 10 12 6 345 228 221 224 224 221 218 217 218 220 220 218 219 221 218 216
308 309 310 311 312 313 314 315 316 317 317 319 320 322 324 326 329 332 335 338 341 344 347 349 349 349 342 317 283 259 249 244 239 228 223 225 226 225 222 220 220 219 220
301 301 302 303 304 305 305 306 306 307 307 308 309 310 311 313 314 316 317 319 322 324 326 326 324 320 315 305 291 277 266 254 242 232 227 228 227 225 223 223 224 225 225
297 297 297 297 297 297 298 298 298 299 299 299 299 300 300 300 301 302 303 303 304 305 306 304 300 297 293 288 283 276 265 256 247 238 235 232 230 229 228 227 227 227 227
294 293 293 293 292 292 291 291 291 292 292 292 292 291 291 291 291 291 291 291 291 291 290 289 288 286 282 278 274 268 261 255 248 244 242 240 238 235 233 231 230 229 228
291 290 290 290 289 288 287 287 286 286 286 285 285 285 285 285 284 284 283 282 282 281 281 279 278 276 273 271 268 264 260 256 251 247 245 244 242 239 237 235 233 232 231
291 290 289 288 287 286 285 284 283 282 281 280 280 279 279 278 278 278 277 276 276 275 274 273 271 269 267 266 264 262 259 257 254 251 249 247 244 242 241 239 237 236 234
292 292 291 289 288 286 284 282 281 279 278 277 276 276 275 274 273 272 272 271 270 270 269 268 266 265 263 262 261 259 258 256 254 252 251 249 247 245 243 242 240 240 239
294 294 293 291 290 288 286 284 282 279 277 275 274 272 271 270 269 268 267 266 265 265 264 263 262 261 260 259 258 257 255 254 253 252 251 249 248 246 245 243 242 242 242
295 294 293 292 291 289 287 285 282 280 278 275 273 271 269 267 266 264 263 262 261 261 260 259 259 258 257 256 254 254 253 252 251 251 250 249 247 246 245 245 244 244 244
295 294 294 293 292 290 288 286 283 281 278 276 273 271 268 266 264 262 260 259 258 257 256 255 255 255 254 253 252 251 251 251 250 250 249 249 248 247 247 246 246 246 247
Height
5800 5795 5790 5785 5780 5776 5771 5767 5763 5759 5756 5753 5751 5749 5748 5747 5747 5747 5748 5750 5752 5755 5759 5763 5767 5771 5776 5781 5785 5789 5793 5796 5800 5804 5808 5811 5815 5819 5822 5825 5828 5831 5833
5802 5797 5792 5787 5781 5776 5771 5767 5762 5758 5754 5750 5747 5745 5743 5742 5741 5741 5741 5743 5745 5748 5751 5755 5759 5763 5767 5772 5776 5780 5784 5788 5792 5796 5799 5803 5806 5810 5814 5817 5819 5822 5825
5804 5799 5794 5789 5783 5778 5772 5767 5762 5757 5753 5749 5745 5742 5740 5738 5737 5736 5736 5737 5739 5741 5744 5748 5752 5755 5759 5764 5767 5771 5775 5779 5783 5787 5791 5794 5798 5801 5804 5808 5810 5813 5816
5806 5801 5796 5791 5785 5780 5774 5769 5764 5758 5753 5748 5744 5740 5737 5735 5734 5733 5732 5733 5734 5736 5739 5742 5745 5748 5752 5756 5760 5764 5767 5771 5774 5779 5782 5785 5789 5792 5795 5798 5801 5804 5807
5808 5803 5798 5793 5788 5782 5777 5771 5765 5760 5754 5749 5744 5740 5737 5734 5732 5731 5730 5730 5731 5732 5734 5737 5740 5743 5746 5749 5753 5756 5760 5763 5766 5770 5774 5777 5780 5783 5787 5790 5793 5795 5797
5809 5805 5800 5795 5790 5784 5779 5773 5767 5762 5756 5751 5746 5741 5737 5734 5732 5730 5729 5728 5729 5729 5731 5733 5735 5737 5740 5743 5746 5750 5753 5756 5759 5763 5766 5769 5772 5775 5778 5781 5784 5786 5789
5811 5806 5801 5797 5792 5787 5781 5776 5770 5764 5759 5753 5748 5743 5739 5735 5733 5731 5729 5728 5727 5727 5728 5730 5731 5733 5735 5738 5740 5743 5746 5749 5752 5755 5758 5761 5765 5767 5770 5773 5776 5779 5781
5812 5807 5803 5798 5793 5789 5784 5778 5773 5767 5762 5756 5751 5746 5742 5738 5735 5732 5730 5728 5727 5727 5727 5727 5728 5729 5731 5733 5735 5738 5740 5743 5746 5749 5752 5755 5757 5759 5763 5765 5768 5770 5773
5813 5808 5804 5800 5795 5791 5786 5781 5775 5770 5765 5760 5755 5750 5745 5741 5738 5735 5732 5729 5727 5727 5726 5726 5727 5727 5728 5730 5731 5733 5735 5738 5740 5743 5746 5748 5750 5753 5755 5758 5760 5762 5765
5813 5809 5805 5801 5796 5792 5788 5783 5778 5773 5768 5763 5758 5754 5749 5745 5741 5738 5734 5731 5729 5727 5726 5726 5726 5726 5727 5728 5729 5730 5731 5733 5736 5738 5741 5743 5745 5747 5749 5751 5753 5756 5758
5813 5809 5805 5801 5797 5793 5789 5784 5780 5775 5771 5766 5762 5757 5753 5749 5745 5741 5738 5734 5731 5729 5727 5726 5726 5726 5726 5727 5727 5728 5729 5731 5732 5734 5736 5738 5740 5742 5744 5746 5748 5750 5752
5813 5809 5805 5801 5797 5794 5790 5786 5782 5777 5773 5769 5765 5761 5756 5752 5749 5745 5741 5738 5735 5732 5729 5728 5727 5726 5726 5726 5726 5727 5728 5729 5730 5731 5733 5735 5736 5738 5740 5741 5743 5745 5747
5812 5808 5804 5801 5797 5793 5790 5786 5782 5778 5775 5771 5767 5763 5759 5755 5751 5748 5744 5741 5737 5734 5732 5730 5728 5727 5726 5726 5726 5726 5727 5728 5728 5729 5731 5732 5733 5735 5736 5738 5739 5740 5742
5810 5806 5803 5799 5796 5793 5789 5786 5782 5779 5775 5772 5768 5764 5761 5757 5754 5750 5747 5743 5740 5736 5734 5731 5729 5728 5727 5726 5726 5726 5726 5727 5727 5728 5729 5730 5731 5732 5734 5735 5736 5736 5738
5807 5803 5800 5797 5794 5791 5787 5784 5781 5778 5775 5772 5768 5765 5761 5758 5755 5751 5748 5745 5742 5738 5735 5733 5731 5729 5727 5727 5726 5726 5726 5726 5726 5727 5727 5728 5729 5731 5732 5733 5733 5734 5736
5802 5799 5796 5794 5791 5788 5785 5782 5779 5776 5773 5770 5767 5764 5761 5758 5755 5752 5749 5746 5743 5740 5737 5734 5732 5730 5728 5727 5727 5726 5726 5726 5726 5726 5726 5727 5728 5729 5730 5731 5732 5732 5734
5797 5794 5792 5789 5786 5784 5781 5778 5776 5773 5770 5767 5765 5762 5759 5756 5754 5751 5748 5745 5743 5740 5737 5735 5733 5731 5729 5728 5727 5726 5726 5725 5725 5725 5725 5725 5726 5727 5728 5729 5730 5731 5732
5791 5788 5785 5783 5781 5778 5776 5773 5771 5768 5766 5763 5761 5758 5756 5754 5751 5749 5746 5744 5742 5739 5737 5735 5732 5731 5729 5727 5726 5725 5725 5724 5724 5724 5724 5724 5724 5725 5726 5727 5728 5729 5730
5783 5780 5778 5776 5774 5771 5769 5767 5764 5762 5760 5758 5756 5754 5752 5749 5747 5745 5743 5741 5739 5737 5735 5733 5731 5730 5728 5727 5725 5724 5723 5723 5722 5722 5722 5723 5723 5723 5724 5724 5725 5726 5727
5774 5771 5769 5767 5765 5763 5761 5759 5757 5755 5753 5751 5749 5748 5746 5744 5742 5740 5738 5736 5735 5733 5732 5730 5729 5727 5726 5724 5723 5722 5722 5721 5720 5720 5720 5720 5720 5720 5721 5722 5722 5723 5724
5764 5761 5759 5757 5755 5753 5751 5749 5747 5746 5744 5743 5741 5739 5738 5736 5735 5734 5732 5730 5729 5727 5726 5725 5724 5723 5722 5721 5720 5719 5718 5718 5717 5717 5717 5717 5717 5717 5718 5718 5719 5719 5720
5752 5750 5748 5746 5744 5742 5739 5738 5736 5735 5733 5732 5731 5730 5728 5727 5726 5725 5724 5723 5722 5720 5719 5719 5718 5717 5716 5716 5715 5714 5714 5713 5713 5713 5713 5713 5713 5713 5714 5714 5715 5715 5716
5740 5738 5735 5733 5731 5729 5727 5725 5723 5722 5721 5719 5718 5717 5717 5716 5715 5714 5714 5713 5712 5712 5711 5710 5710 5709 5709 5709 5708 5708 5708 5707 5707 5707 5707 5707 5708 5708 5708 5709 5710 5710 5711
5727 5725 5722 5720 5717 5715 5713 5711 5709 5707 5706 5705 5703 5703 5702 5702 5701 5701 5701 5701 5700 5700 5700 5700 5700 5700 5700 5700 5700 5700 5700 5700 5700 5700 5700 5701 5701 5702 5702 5703 5704 5704 5705
5714 5711 5708 5705 5702 5700 5698 5695 5693 5691 5689 5688 5686 5686 5685 5685 5685 5685 5685 5686 5686 5687 5687 5688 5688 5688 5689 5689 5689 5690 5691 5691 5692 5692 5692 5693 5694 5694 5695 5696 5697 5698 5699
5699 5696 5693 5689 5686 5683 5680 5678 5675 5673 5670 5668 5667 5666 5665 5665 5665 5666 5667 5668 5669 5670 5671 5673 5674 5675 5675 5676 5678 5679 5679 5680 5681 5682 5683 5684 5685 5686 5687 5688 5689 5690 5691